Temperature
22 23 23 23 27 28 27 28 28 28 28 28 27 27 28 27 27 25 20 20 20 19 19 20 19 19 19 19 19 19 19 19 19 19 19 19 19 19 19 19 19 19 19 19 18 19 19 19 19
22 23 23 26 29 28 27 28 28 28 28 27 26 27 27 26 23 21 19 19 19 19 19 19 20 20 19 19 19 19 19 19 19 19 19 19 19 19 19 19 19 18 18 18 18 18 18 18 18
23 24 25 29 29 28 28 28 28 28 27 27 27 26 26 24 22 21 20 19 19 19 18 19 20 19 19 19 19 19 19 19 19 19 19 19 19 19 19 19 19 18 18 18 18 18 18 18 18
23 24 27 29 28 28 28 29 29 28 27 26 27 26 24 22 22 21 20 19 19 19 18 19 19 19 19 19 19 19 19 19 19 19 19 19 19 19 18 18 18 18 18 18 18 18 18 18 18
23 27 29 28 28 29 29 29 28 29 28 27 27 27 24 21 21 20 20 19 19 19 18 19 19 19 19 19 19 19 19 19 19 19 19 19 19 18 18 18 18 18 18 18 18 18 18 18 18
26 28 29 28 28 29 29 29 29 29 28 27 27 26 24 21 20 20 20 19 19 19 18 18 19 19 19 19 19 19 19 19 19 18 18 18 18 18 18 18 18 18 18 18 18 18 18 18 18
27 28 28 28 28 28 29 28 29 29 29 28 27 27 24 22 20 20 20 20 20 19 19 18 18 19 19 19 19 19 18 18 18 18 18 18 18 18 18 18 18 18 18 18 18 18 18 18 17
25 28 28 28 28 28 28 28 28 28 28 26 26 27 25 22 20 20 20 20 20 19 19 18 18 18 18 18 19 18 18 18 18 18 18 18 18 18 18 18 18 18 18 18 18 18 18 18 17
24 28 28 28 28 28 28 28 28 27 27 26 26 26 25 22 21 20 20 20 19 19 19 19 18 18 18 18 18 18 18 18 18 18 18 18 17 17 17 17 18 18 18 18 18 18 18 18 17
26 28 28 27 28 28 28 28 28 28 28 27 26 24 23 22 21 21 21 20 20 19 19 19 19 18 18 18 17 18 18 18 18 17 17 17 17 17 17 17 18 18 18 18 18 18 18 17 17
27 27 27 27 26 27 28 28 27 28 28 28 27 25 23 22 22 22 22 21 21 20 19 19 19 18 18 18 18 18 18 18 17 17 17 17 17 17 17 17 17 17 17 17 17 17 17 17 17
27 27 26 27 25 26 27 27 27 27 27 26 26 26 24 23 23 22 22 22 21 20 20 19 19 18 18 18 18 18 18 18 18 17 17 17 17 17 17 17 17 17 16 16 17 17 17 17 18
27 27 26 25 25 26 26 27 26 26 25 25 26 25 25 24 24 23 23 22 22 21 20 19 19 19 19 18 18 18 18 18 18 17 17 17 17 17 17 17 17 17 17 16 16 17 17 17 17
26 26 26 25 26 26 26 26 26 24 24 25 25 25 25 25 24 24 23 23 22 21 21 20 19 19 19 19 18 18 18 18 18 17 17 17 17 17 17 17 17 17 17 17 17 17 17 17 17
25 26 26 26 26 26 26 26 25 23 24 24 24 24 24 24 24 24 24 23 23 22 21 21 20 19 19 19 18 18 18 18 17 17 17 17 17 17 17 17 17 17 17 17 17 17 17 17 17
26 26 26 26 26 25 26 26 23 22 23 23 23 23 22 22 23 23 23 23 22 22 22 21 20 20 19 19 18 18 18 18 18 17 17 17 17 17 17 17 17 17 17 17 17 17 17 17 17
26 26 26 26 25 26 26 25 23 22 22 22 21 21 21 21 21 21 21 22 22 22 22 21 21 20 20 19 19 18 18 18 18 18 17 17 17 17 17 17 17 17 16 17 17 17 17 17 17
26 26 26 25 25 25 25 23 23 21 21 21 21 21 21 21 20 20 20 20 21 22 22 21 21 20 20 19 19 19 18 18 18 18 18 17 17 17 17 17 17 17 16 16 16 16 16 17 16
25 25 25 25 24 24 24 23 22 21 21 20 20 20 20 19 19 19 19 20 20 21 22 22 21 21 20 20 20 19 19 19 18 18 18 18 17 17 17 17 17 17 17 16 16 16 16 16 16
24 24 25 24 23 24 24 23 22 21 20 19 19 19 19 18 18 18 18 19 19 20 21 21 21 21 21 20 20 20 19 19 18 18 18 18 18 17 17 17 17 17 17 16 16 16 16 16 16
24 23 23 23 23 23 23 23 22 21 20 20 19 18 18 17 17 17 17 18 19 19 20 21 21 21 21 20 20 20 19 19 19 18 18 18 18 18 17 17 17 17 17 16 16 16 16 16 16
23 22 22 22 23 23 23 23 23 21 21 20 19 18 18 17 17 17 16 17 17 18 19 20 21 21 20 20 19 20 19 18 18 17 17 18 18 18 17 17 17 17 17 17 16 16 16 16 16
21 21 21 22 22 23 23 22 23 21 20 19 19 18 17 16 16 16 16 16 16 17 18 19 20 20 19 19 19 19 18 17 17 17 17 17 17 17 17 17 17 17 17 17 16 16 16 16 16
21 21 22 22 22 21 22 22 20 18 17 18 18 17 16 16 16 15 15 15 15 16 17 17 18 18 18 18 18 17 17 16 16 16 16 16 17 17 17 17 17 17 16 16 16 16 16 16 16
21 20 21 21 20 21 22 21 17 16 17 17 16 16 15 15 15 15 15 15 15 15 16 16 16 17 17 17 17 16 16 16 16 16 16 16 16 17 17 17 17 16 16 16 16 16 16 16 16
19 19 18 18 19 19 19 18 15 16 16 16 15 15 15 14 14 14 14 14 14 15 15 15 15 16 16 16 16 16 16 16 16 16 16 16 16 16 16 16 16 16 16 16 16 16 16 16 15
18 18 18 17 18 18 18 17 16 16 16 15 15 14 14 13 13 13 14 14 14 14 14 14 15 15 15 15 15 15 15 15 16 16 16 16 16 16 16 16 16 16 16 16 15 15 16 15 15
17 17 17 17 16 16 17 15 13 14 13 14 13 13 12 13 13 13 13 13 13 14 14 14 14 15 15 15 15 15 15 16 16 16 16 16 16 16 16 16 15 15 16 16 15 15 15 15 15
16 16 16 16 16 15 15 13 12 12 12 12 12 11 11 12 12 12 13 13 13 14 14 14 14 14 14 14 15 15 15 15 16 16 16 16 16 16 15 15 15 15 15 15 15 15 15 15 15
15 14 14 14 15 15 13 12 11 11 11 11 11 11 11 11 12 12 12 13 13 13 14 14 14 14 14 15 15 15 15 15 15 15 15 16 15 15 15 15 15 15 15 15 15 15 15 15 14
Wind_Speed
4 2 3 3 2 7 11 8 6 5 5 5 4 3 3 3 2 3 6 14 15 17 17 18 16 16 15 15 14 13 13 13 12 12 12 11 10 10 10 10 10 9 9 9 8 8 8 7 7
3 2 3 2 5 10 11 7 7 6 5 5 4 3 3 5 5 7 10 13 16 16 16 17 17 16 15 14 14 13 13 13 12 12 11 10 10 10 9 10 10 10 10 9 9 8 8 7 6
2 3 2 2 6 9 10 6 5 5 4 1 2 3 3 4 5 7 10 15 16 15 15 16 17 15 14 14 14 13 13 12 12 12 11 10 10 9 9 9 10 10 10 10 9 9 8 7 6
2 2 2 4 9 6 4 4 3 5 2 1 1 4 4 4 4 8 14 15 16 14 14 17 16 15 14 13 13 13 12 12 11 11 11 10 9 9 9 9 9 10 10 10 10 9 9 8 6
2 2 3 6 6 4 2 1 2 2 1 2 1 3 5 5 6 12 15 14 15 14 14 16 16 15 14 13 13 12 12 12 12 11 11 10 9 9 8 8 8 9 9 9 9 9 8 8 7
2 2 4 6 6 3 3 2 2 1 1 1 1 3 5 6 9 12 13 13 14 14 14 15 16 14 14 13 13 12 12 12 12 12 11 10 9 8 8 7 7 8 8 8 8 8 8 7 7
2 1 3 5 5 4 3 1 1 0 1 1 1 2 5 8 10 12 12 12 12 13 13 13 16 15 14 13 13 13 12 12 12 12 11 10 9 8 7 7 7 7 7 7 7 7 7 7 7
2 1 4 3 4 4 3 1 1 1 2 3 1 2 3 10 12 12 11 11 12 13 12 12 13 14 14 14 14 13 12 12 12 12 11 10 9 8 7 8 7 6 7 6 6 6 6 7 8
2 3 3 3 3 4 2 1 2 1 3 3 1 3 4 14 15 13 11 11 11 12 12 11 11 11 11 12 13 13 12 12 12 12 12 11 10 10 9 7 7 6 6 6 6 5 5 5 8
2 2 2 3 1 2 2 1 2 3 3 3 3 4 9 15 15 14 13 13 13 13 13 11 11 11 11 9 11 11 12 12 13 12 13 11 8 6 5 11 6 6 6 6 5 4 5 6 6
1 1 3 2 2 2 1 2 1 2 1 2 2 7 13 14 15 14 13 12 13 13 12 12 11 11 10 8 8 8 9 10 11 11 11 9 7 7 7 8 9 8 8 7 7 7 4 3 3
0 2 2 2 2 2 2 1 1 2 5 7 6 7 15 16 16 15 13 12 12 12 12 12 12 11 11 10 8 8 7 8 8 10 11 9 6 6 7 6 7 7 6 4 4 3 4 3 3
1 1 2 2 2 2 2 1 1 5 10 9 4 8 15 15 14 13 12 12 12 12 12 12 12 12 12 10 7 8 8 8 9 8 9 9 7 7 6 6 6 7 6 6 4 4 4 3 2
1 1 1 2 1 1 2 2 2 7 11 8 3 4 10 12 12 11 12 11 12 12 12 12 12 13 12 11 10 8 8 8 8 9 10 11 8 7 6 7 6 7 7 5 5 4 3 3 2
2 4 2 0 1 1 2 2 6 10 9 8 5 1 3 6 9 10 10 11 12 12 12 12 12 13 13 12 11 8 8 9 8 9 11 11 10 9 8 7 7 7 8 7 5 4 3 3 3
3 5 5 1 2 2 5 2 8 10 9 9 9 6 3 3 6 8 9 11 12 12 13 13 11 13 13 12 11 9 9 9 8 9 10 12 12 11 8 7 7 8 7 6 5 4 4 4 4
5 6 5 1 2 3 3 1 7 10 9 9 10 9 7 6 6 7 9 11 12 13 14 14 14 14 14 13 11 10 9 9 9 9 9 11 12 12 9 7 6 8 7 7 6 6 5 5 4
4 5 5 4 2 3 1 1 5 9 9 10 10 10 10 10 9 9 9 10 11 13 15 16 15 15 14 12 11 9 9 9 8 9 9 11 11 12 10 7 8 8 6 7 7 7 6 5 5
5 6 6 3 2 3 1 1 4 7 9 11 11 12 12 12 12 11 11 10 10 12 15 16 16 16 13 11 11 10 9 8 8 8 10 11 12 12 11 8 9 8 8 9 10 8 8 6 6
5 7 7 3 1 4 4 2 3 5 9 10 12 13 14 15 15 14 13 11 10 10 13 16 16 16 15 12 10 8 7 6 6 6 7 10 11 12 10 11 9 9 9 10 10 9 7 7 7
5 6 7 8 6 5 7 7 6 4 5 9 12 13 14 15 17 17 15 14 12 10 11 12 14 14 13 13 9 7 6 4 4 5 5 7 10 11 11 10 9 9 9 9 10 11 11 9 9
6 7 9 9 10 9 7 10 5 1 2 10 14 15 16 16 16 16 16 15 14 12 10 9 10 11 11 13 11 10 6 4 2 1 2 5 7 9 10 10 9 9 8 9 10 10 10 10 9
8 10 10 11 12 13 11 11 3 3 6 13 15 16 16 16 16 16 15 14 13 12 9 4 4 6 8 11 12 10 6 4 3 1 3 4 5 7 8 8 8 9 8 9 9 9 10 9 10
10 11 10 10 10 14 11 10 1 5 10 14 16 17 17 17 16 15 14 13 11 11 8 5 4 7 9 10 11 11 10 7 5 1 3 4 3 5 7 7 7 8 7 8 8 9 11 10 11
11 10 6 7 8 8 3 4 5 9 11 13 16 17 17 16 15 15 14 12 11 10 9 7 8 9 10 11 10 10 10 8 5 3 4 4 4 4 5 6 7 6 7 7 7 8 9 10 11
9 8 6 6 7 5 3 1 7 10 12 13 14 16 16 17 15 14 12 9 8 9 9 8 8 9 9 9 9 8 8 5 3 4 4 4 3 3 4 5 5 5 5 5 6 6 7 8 9
8 7 5 7 8 7 2 3 4 14 17 18 18 19 19 18 15 13 11 8 7 7 8 8 7 8 7 7 7 6 5 5 5 5 5 4 4 4 4 4 4 4 4 4 4 5 6 6 7
8 7 5 4 4 3 1 4 8 18 19 19 19 20 19 18 15 12 9 7 6 6 6 7 6 5 5 4 4 3 3 3 3 3 4 5 5 5 5 4 4 4 4 4 4 4 4 6 6
10 8 6 4 3 3 2 4 8 13 15 16 17 18 18 16 13 11 10 8 8 7 7 7 6 6 5 3 3 3 2 2 3 3 4 4 4 5 5 5 4 4 4 4 4 4 4 5 5
8 8 6 4 4 3 2 3 9 12 12 14 16 17 16 15 14 12 12 11 11 10 9 8 7 6 4 3 3 2 2 3 3 3 3 3 3 3 4 4 4 4 4 3 4 4 4 4 4
Wind_Direction
253 216 202 222 166 92 85 86 88 91 78 75 69 52 37 28 347 57 123 153 147 150 147 150 150 149 148 147 145 143 140 137 135 132 128 124 119 113 108 102 97 94 92 94 98 100 101 104 111
303 233 233 237 104 95 88 91 86 74 100 106 86 58 59 65 52 100 138 150 151 151 151 152 150 151 151 150 149 146 144 142 141 138 133 128 123 117 110 103 98 93 90 88 89 92 94 93 100
249 252 272 103 83 81 89 85 87 102 115 86 75 51 44 62 100 124 142 151 154 153 153 146 153 153 153 153 152 151 149 149 148 144 139 133 128 122 114 108 101 94 89 85 83 84 85 85 88
257 239 223 109 92 81 75 92 123 137 129 57 65 87 81 75 107 126 141 154 155 157 157 151 158 156 156 156 156 154 154 154 154 151 145 140 134 127 119 112 105 98 91 84 81 80 78 75 76
268 258 139 113 98 92 90 87 154 152 77 65 45 78 100 100 112 133 149 157 161 162 162 157 162 161 162 161 161 160 160 160 159 157 152 147 142 134 126 119 111 103 95 87 82 79 77 72 72
270 240 144 116 105 102 102 148 186 178 78 122 94 81 102 127 143 149 154 164 165 165 166 162 164 167 168 168 168 167 168 167 165 163 159 154 148 140 133 125 117 108 100 93 86 81 78 75 77
307 202 136 128 129 116 77 120 202 30 63 87 79 78 122 147 153 157 159 165 167 169 172 171 171 175 176 176 176 175 175 174 171 167 163 159 153 147 141 134 126 116 107 99 93 86 80 76 83
335 198 158 155 150 108 68 131 30 302 63 101 190 24 136 157 158 161 161 166 171 175 178 179 177 180 181 181 183 183 181 179 176 172 167 161 157 155 152 156 135 128 117 107 100 94 87 86 92
291 232 184 155 156 106 74 136 108 127 137 152 165 29 106 147 159 165 166 172 177 182 185 186 183 187 187 184 176 185 185 184 181 178 171 175 178 168 171 135 133 139 128 117 108 103 105 119 116
296 242 96 71 68 78 60 51 139 180 184 185 165 133 143 157 170 176 179 181 183 188 191 191 194 188 191 188 182 191 188 185 192 185 179 189 180 169 156 125 151 146 138 135 121 134 174 208 146
335 33 74 74 37 1 23 61 137 249 273 326 253 181 169 175 183 188 190 189 189 190 191 197 197 195 195 191 194 191 190 187 197 191 182 188 179 170 173 166 167 167 174 165 151 189 169 164 120
305 70 49 42 18 339 354 28 60 5 354 335 298 209 183 189 193 196 195 193 191 194 195 199 200 197 201 199 196 200 194 190 191 195 191 185 190 191 177 186 175 176 174 165 178 170 155 168 163
227 88 46 7 339 334 321 354 42 32 352 334 305 200 193 197 199 200 201 199 199 199 199 204 202 205 202 202 201 205 203 199 194 193 199 193 193 196 185 187 182 190 176 178 183 198 166 180 165
354 315 327 347 349 17 349 64 62 11 353 1 12 195 204 206 209 207 207 210 210 208 206 204 206 208 208 202 202 206 203 202 204 194 204 200 198 201 191 196 187 192 191 188 194 191 190 191 171
281 270 239 51 360 21 295 122 43 6 1 18 24 38 233 227 227 230 225 225 224 218 216 210 210 210 211 210 207 207 206 201 204 200 207 205 202 203 200 203 194 195 196 196 204 187 207 187 176
248 249 245 124 7 346 283 240 36 11 19 28 22 20 346 281 262 255 253 245 240 233 227 217 209 213 212 210 206 208 209 207 205 204 208 210 207 209 205 208 206 201 199 206 199 211 208 192 196
236 256 262 223 39 345 316 12 34 23 28 31 25 18 9 352 327 307 289 270 257 245 237 229 215 215 212 209 205 210 209 208 210 208 208 214 213 213 209 214 215 204 204 213 214 213 218 207 201
283 278 271 273 15 332 324 54 43 37 37 33 25 17 12 3 351 336 320 298 277 257 243 236 225 216 211 205 207 205 212 209 212 213 212 216 219 219 219 215 218 214 212 219 221 218 221 225 211
302 283 278 300 356 307 286 9 58 50 42 32 23 16 10 2 355 349 337 318 289 264 248 237 230 218 208 200 200 199 204 207 211 217 220 220 224 225 222 225 223 216 218 222 225 219 217 218 213
288 281 281 279 343 296 273 258 115 69 49 33 20 12 5 357 354 353 345 336 315 286 258 243 230 219 208 199 195 196 195 202 207 211 222 227 229 229 228 227 228 225 226 226 224 220 219 218 211
309 314 307 299 295 251 263 238 178 120 59 33 21 11 4 358 351 348 344 340 330 311 279 251 235 220 203 189 180 163 161 163 182 206 220 231 234 234 230 235 235 234 231 228 224 220 218 217 219
314 345 312 291 276 266 252 270 196 124 40 18 10 4 360 356 351 348 345 343 337 326 308 264 236 216 192 176 171 166 166 163 152 232 240 245 242 238 233 233 234 234 231 231 228 224 223 219 217
334 318 295 280 270 268 249 258 219 65 9 1 359 357 355 352 349 347 347 346 344 341 336 307 217 187 164 162 160 151 133 118 96 33 292 259 244 237 232 231 232 232 231 231 228 224 222 221 219
330 303 273 253 256 254 252 249 208 38 1 351 352 352 352 350 348 347 348 353 357 2 9 23 96 122 132 136 138 133 124 115 111 140 254 253 241 235 227 225 229 232 231 230 227 225 223 227 226
352 333 292 259 245 257 269 243 74 34 9 357 350 350 349 349 348 347 349 356 4 17 30 52 83 102 116 122 120 122 122 126 140 189 233 231 226 224 215 214 221 223 228 229 225 228 227 227 230
354 350 327 296 290 299 296 137 86 29 11 1 356 353 350 350 350 350 351 359 11 27 34 48 78 92 103 113 118 120 123 128 149 197 217 217 217 210 192 201 207 209 213 216 218 228 229 231 231
349 356 333 294 289 278 266 99 74 8 4 360 358 355 352 350 350 353 359 11 18 26 32 39 64 84 96 104 110 119 132 146 167 189 199 196 192 174 171 182 184 182 189 203 207 219 224 229 231
10 343 320 309 306 287 319 47 6 355 351 350 353 351 349 349 352 359 6 14 24 28 25 32 48 70 78 87 99 110 123 148 162 182 199 187 170 158 162 169 165 166 169 180 194 208 212 222 226
10 7 346 306 303 317 337 54 10 353 347 348 350 350 351 353 0 12 14 23 32 32 30 32 36 46 47 46 66 98 123 148 163 177 180 171 166 168 170 164 162 159 164 170 178 195 196 214 220
20 4 348 341 356 357 340 36 8 356 353 355 354 354 356 1 11 23 27 28 30 27 25 28 30 38 39 50 74 100 131 154 163 161 157 161 157 167 172 164 165 159 165 176 182 184 197 212 218
Height
1507 1506 1506 1507 1505 1506 1513 1511 1507 1507 1507 1510 1511 1510 1509 1509 1512 1520 1522 1522 1525 1527 1529 1531 1533 1535 1537 1539 1540 1541 1542 1543 1544 1545 1545 1546 1547 1547 1548 1548 1548 1548 1549 1549 1549 1550 1550 1551 1551
1507 1506 1508 1508 1504 1514 1517 1509 1508 1508 1511 1512 1512 1512 1511 1514 1518 1519 1520 1523 1526 1528 1530 1532 1534 1536 1538 1540 1541 1542 1543 1544 1545 1546 1546 1547 1548 1548 1548 1549 1549 1549 1549 1550 1550 1550 1551 1551 1552
1507 1507 1510 1505 1507 1513 1515 1509 1508 1510 1513 1513 1513 1514 1514 1517 1520 1521 1522 1523 1527 1529 1532 1533 1535 1537 1539 1540 1542 1543 1544 1545 1546 1547 1547 1548 1549 1549 1549 1549 1549 1550 1550 1550 1551 1551 1551 1552 1552
1509 1510 1509 1505 1512 1511 1509 1508 1510 1511 1513 1514 1513 1515 1517 1521 1521 1522 1522 1525 1528 1530 1532 1533 1535 1537 1539 1541 1542 1543 1544 1545 1546 1547 1548 1549 1549 1550 1550 1550 1550 1550 1550 1551 1551 1552 1552 1552 1553
1509 1509 1506 1510 1511 1509 1508 1509 1510 1510 1512 1514 1514 1514 1518 1521 1521 1522 1524 1526 1529 1531 1533 1534 1536 1538 1540 1541 1542 1543 1545 1546 1547 1548 1548 1549 1550 1550 1550 1550 1551 1551 1551 1551 1552 1552 1553 1553 1554
1511 1507 1508 1513 1512 1509 1508 1510 1510 1510 1512 1514 1515 1515 1519 1522 1522 1524 1525 1527 1530 1532 1533 1535 1535 1538 1539 1541 1542 1543 1545 1546 1547 1548 1549 1549 1550 1550 1551 1551 1551 1551 1551 1552 1553 1553 1554 1554 1555
1512 1507 1509 1511 1513 1511 1510 1511 1509 1510 1511 1514 1515 1515 1519 1522 1523 1525 1526 1528 1530 1532 1534 1535 1536 1537 1539 1540 1542 1543 1544 1545 1547 1548 1549 1549 1550 1551 1551 1551 1551 1551 1552 1552 1553 1554 1554 1555 1555
1512 1509 1511 1510 1512 1512 1511 1511 1512 1512 1513 1516 1516 1515 1518 1521 1522 1525 1527 1529 1530 1532 1534 1536 1537 1538 1539 1540 1541 1542 1544 1545 1546 1547 1548 1549 1550 1550 1551 1552 1551 1552 1552 1553 1553 1554 1555 1556 1556
1513 1511 1512 1511 1512 1512 1512 1511 1513 1514 1514 1516 1517 1517 1519 1520 1522 1524 1526 1528 1530 1532 1534 1535 1537 1538 1540 1541 1541 1542 1543 1544 1545 1547 1548 1549 1551 1552 1552 1552 1551 1552 1552 1553 1554 1555 1555 1556 1557
1513 1511 1512 1512 1512 1512 1512 1512 1513 1513 1513 1515 1517 1518 1519 1520 1522 1523 1525 1527 1529 1530 1533 1534 1536 1537 1539 1540 1541 1541 1542 1543 1545 1547 1547 1549 1551 1552 1553 1551 1552 1552 1553 1553 1554 1555 1556 1557 1559
1512 1512 1513 1514 1514 1514 1513 1513 1513 1512 1512 1514 1515 1518 1519 1520 1521 1523 1525 1526 1528 1530 1531 1533 1535 1536 1538 1539 1540 1541 1542 1543 1545 1547 1547 1549 1550 1551 1552 1552 1552 1553 1554 1556 1555 1556 1558 1559 1559
1513 1514 1514 1514 1516 1515 1514 1513 1513 1514 1515 1516 1515 1516 1517 1519 1520 1522 1524 1526 1527 1529 1530 1532 1533 1535 1536 1538 1539 1540 1541 1542 1544 1545 1547 1548 1549 1551 1552 1552 1554 1554 1555 1556 1557 1558 1558 1559 1559
1513 1514 1515 1515 1515 1515 1514 1514 1515 1516 1517 1515 1513 1514 1516 1518 1520 1522 1524 1525 1527 1528 1529 1531 1532 1534 1535 1537 1538 1539 1540 1542 1543 1544 1546 1547 1548 1550 1551 1552 1552 1554 1555 1556 1556 1558 1558 1559 1559
1515 1515 1515 1515 1515 1515 1514 1514 1516 1518 1517 1515 1514 1514 1516 1518 1520 1522 1523 1525 1526 1528 1529 1530 1531 1532 1534 1535 1536 1538 1539 1540 1542 1542 1544 1546 1547 1548 1549 1551 1551 1553 1554 1556 1557 1558 1558 1558 1559
1515 1514 1513 1514 1514 1514 1514 1514 1518 1520 1517 1516 1515 1515 1517 1518 1520 1521 1523 1524 1525 1527 1528 1529 1530 1531 1532 1534 1535 1536 1537 1539 1540 1541 1542 1544 1546 1547 1548 1549 1550 1552 1553 1555 1556 1557 1557 1558 1558
1513 1513 1514 1513 1514 1513 1514 1515 1521 1520 1518 1517 1517 1517 1517 1518 1519 1520 1521 1522 1523 1524 1526 1527 1527 1528 1530 1532 1533 1534 1535 1537 1537 1539 1540 1542 1544 1545 1546 1547 1549 1550 1552 1553 1554 1556 1557 1557 1558
1512 1513 1514 1514 1514 1513 1513 1517 1522 1522 1520 1519 1518 1518 1517 1517 1518 1518 1518 1519 1520 1521 1522 1524 1525 1526 1528 1529 1530 1532 1533 1534 1535 1536 1538 1539 1542 1543 1544 1545 1547 1548 1549 1551 1553 1554 1555 1556 1556
1516 1515 1515 1515 1514 1515 1515 1519 1522 1523 1522 1521 1520 1519 1518 1517 1516 1515 1514 1513 1514 1516 1517 1519 1521 1522 1524 1525 1527 1528 1530 1531 1532 1534 1535 1536 1538 1540 1541 1542 1544 1545 1546 1548 1550 1551 1552 1554 1554
1517 1517 1517 1515 1516 1517 1516 1519 1521 1524 1523 1522 1521 1519 1518 1517 1516 1513 1511 1509 1509 1509 1511 1513 1515 1517 1519 1520 1522 1524 1526 1528 1529 1531 1532 1533 1535 1536 1538 1539 1541 1542 1543 1544 1546 1548 1549 1551 1552
1518 1518 1516 1515 1517 1516 1516 1518 1521 1524 1524 1524 1522 1520 1518 1516 1513 1511 1508 1506 1505 1504 1504 1506 1508 1511 1513 1514 1517 1520 1523 1525 1526 1527 1528 1530 1531 1533 1534 1536 1537 1539 1540 1541 1543 1544 1545 1547 1548
1520 1522 1521 1520 1518 1516 1516 1516 1518 1522 1524 1524 1523 1522 1520 1517 1513 1509 1505 1503 1501 1499 1498 1499 1501 1503 1506 1508 1511 1514 1517 1520 1522 1523 1525 1527 1528 1530 1531 1533 1534 1535 1536 1537 1539 1540 1541 1543 1544
1524 1525 1524 1522 1520 1514 1515 1518 1513 1518 1520 1523 1523 1522 1519 1516 1513 1509 1505 1501 1498 1495 1493 1493 1494 1497 1499 1502 1504 1507 1510 1514 1517 1520 1522 1524 1525 1526 1528 1529 1530 1531 1532 1533 1534 1535 1537 1538 1539
1529 1527 1523 1520 1517 1515 1512 1517 1511 1518 1523 1524 1524 1522 1520 1517 1513 1509 1505 1500 1496 1492 1490 1488 1489 1491 1493 1496 1499 1501 1505 1508 1512 1515 1519 1521 1522 1523 1524 1525 1526 1527 1528 1529 1530 1531 1532 1533 1535
1530 1523 1518 1516 1514 1519 1510 1513 1520 1528 1531 1528 1526 1523 1520 1517 1513 1509 1504 1500 1495 1492 1488 1486 1486 1487 1489 1492 1495 1497 1500 1504 1507 1512 1517 1520 1520 1520 1521 1522 1523 1524 1525 1526 1527 1528 1528 1529 1531
1530 1528 1524 1522 1520 1517 1509 1516 1534 1536 1535 1533 1529 1525 1521 1517 1513 1508 1504 1500 1496 1493 1490 1488 1487 1487 1489 1491 1493 1496 1498 1502 1505 1511 1513 1517 1518 1519 1519 1520 1521 1521 1522 1523 1524 1524 1525 1526 1527
1536 1535 1540 1540 1532 1526 1520 1526 1540 1538 1537 1535 1531 1527 1522 1517 1513 1508 1505 1501 1498 1495 1493 1491 1490 1490 1491 1492 1494 1496 1499 1502 1506 1510 1512 1515 1517 1518 1518 1519 1519 1520 1520 1521 1521 1522 1522 1523 1523
1540 1538 1540 1541 1532 1532 1528 1533 1537 1537 1536 1535 1531 1527 1522 1517 1513 1508 1505 1502 1500 1498 1496 1494 1493 1493 1493 1494 1495 1497 1500 1502 1505 1510 1513 1514 1516 1516 1517 1518 1518 1518 1518 1519 1519 1519 1520 1520 1520
1548 1546 1541 1542 1544 1541 1536 1541 1551 1545 1542 1538 1534 1529 1524 1518 1513 1509 1506 1504 1502 1500 1498 1497 1496 1496 1497 1498 1499 1500 1502 1505 1507 1509 1512 1513 1514 1515 1516 1516 1517 1517 1517 1517 1517 1518 1518 1518 1518
1553 1551 1549 1545 1545 1549 1550 1557 1558 1555 1550 1545 1539 1533 1527 1521 1515 1511 1507 1505 1504 1502 1501 1500 1500 1499 1499 1501 1502 1503 1504 1507 1508 1510 1512 1513 1514 1514 1515 1515 1516 1516 1516 1516 1516 1516 1516 1516 1516
1559 1559 1557 1555 1552 1550 1557 1566 1561 1558 1553 1548 1542 1535 1529 1523 1518 1513 1510 1507 1506 1504 1504 1503 1502 1502 1502 1503 1504 1505 1507 1508 1509 1511 1512 1513 1513 1514 1515 1515 1515 1515 1515 1515 1516 1515 1515 1515 1514